Wind_Speed
49 49 49 49 49 47 44 43 44 47 49 50 51 52 51 51 49 45 39 36 37 40 42 43 45 48 49 51 52 52 53 54 55 56 58 58 60 61 63 64 64 63
51 50 49 49 49 47 45 46 47 48 49 50 51 52 52 50 47 42 38 38 41 43 46 48 49 51 52 53 53 53 54 56 57 58 59 60 62 63 64 64 62 61
51 50 50 50 48 46 46 47 48 49 50 52 53 53 50 48 46 43 42 44 46 48 50 51 51 52 53 53 54 55 57 58 59 60 61 62 63 64 63 62 60 58
50 49 49 48 45 43 44 46 48 50 52 54 53 51 50 49 47 46 46 48 49 50 51 51 52 53 54 55 56 58 59 60 60 61 62 64 64 63 61 59 57 57
48 48 47 45 43 42 44 46 48 50 52 53 52 51 51 49 48 48 48 49 50 51 51 52 54 55 56 57 58 59 60 60 61 63 64 64 62 60 58 56 56 57
47 48 46 44 43 44 46 48 50 51 53 53 53 52 51 50 49 49 49 50 51 52 53 54 56 57 58 59 59 60 61 62 63 64 63 61 59 57 55 55 56 58
45 46 46 45 45 46 47 50 52 53 53 53 53 53 51 50 50 50 50 51 53 54 55 56 57 58 59 60 60 61 62 63 63 62 60 58 56 54 54 55 56 58
45 45 46 46 47 47 49 52 53 54 54 54 54 52 51 50 51 51 52 53 55 56 57 58 58 59 60 60 61 62 63 63 61 59 57 55 53 53 54 55 57 59
46 47 48 49 49 50 51 53 54 55 55 54 53 51 51 51 52 53 54 55 57 57 58 58 59 59 60 61 62 62 61 59 57 55 53 52 52 52 54 56 58 59
44 46 48 50 51 53 53 55 56 56 55 54 52 51 52 53 54 55 56 57 57 58 58 59 59 60 61 61 61 59 57 56 54 53 51 50 51 53 55 57 58 59
42 44 46 48 50 52 54 55 55 55 54 53 53 53 53 54 54 55 56 57 57 58 58 59 59 59 59 59 57 56 54 53 52 51 49 50 51 54 56 57 58 58
41 42 44 46 47 49 51 52 53 53 54 53 53 53 53 54 55 55 56 56 57 57 57 57 56 56 56 55 54 54 53 52 51 49 48 50 52 55 56 57 58 58
38 40 42 43 45 46 48 49 50 51 52 52 52 52 53 53 54 54 55 55 55 55 54 53 53 53 54 53 53 52 52 51 50 49 49 51 54 56 57 57 57 58
37 38 40 41 43 44 46 47 48 49 50 50 50 50 51 51 51 51 51 51 51 51 51 51 51 52 52 52 51 50 51 50 49 49 51 53 55 57 58 57 57 59
36 37 38 39 40 42 43 44 45 46 46 47 47 47 47 47 47 48 48 48 49 50 50 49 49 50 49 49 49 50 50 50 50 50 52 54 57 59 58 57 58 60
36 36 36 37 38 39 40 41 42 43 43 43 43 44 44 44 45 46 47 48 48 48 48 47 47 48 48 49 49 49 50 51 51 52 53 56 59 60 58 58 60 61
35 35 35 36 36 37 38 39 39 40 40 41 41 42 42 43 44 45 46 46 46 46 46 45 46 47 48 49 49 50 52 54 54 54 56 58 61 60 59 60 62 62
35 34 34 35 35 35 36 37 39 39 39 39 40 40 40 41 41 42 43 43 44 45 45 46 48 49 50 50 51 53 55 55 55 56 58 60 61 60 60 61 62 63
35 34 33 32 31 32 34 36 38 38 37 37 37 37 37 37 38 40 43 45 48 49 50 52 53 53 53 53 54 55 56 56 57 59 60 60 60 60 61 62 63 63
34 33 32 30 28 29 31 33 35 37 37 35 34 35 36 38 41 45 48 51 54 56 57 58 57 57 56 56 57 57 56 57 59 60 60 59 59 60 62 63 63 63
34 34 33 32 30 29 30 32 35 38 39 37 36 37 39 42 46 50 52 55 58 60 62 62 61 60 59 59 59 58 58 60 61 61 60 59 60 61 62 63 63 64
35 35 34 31 29 28 30 33 36 39 40 39 40 42 44 47 51 52 54 56 59 62 64 65 64 63 62 60 60 60 61 63 63 62 61 61 62 62 62 63 64 64
36 36 34 31 29 30 31 34 38 41 41 42 43 45 48 51 53 54 56 58 61 64 66 67 66 65 62 60 60 62 64 64 64 62 62 63 63 62 62 64 64 65
36 36 34 32 31 31 31 33 39 42 42 43 45 48 51 53 55 57 59 61 64 67 68 68 66 62 60 60 62 63 64 63 63 63 63 63 63 63 64 65 65 65
37 36 36 35 34 33 31 31 36 41 43 46 48 50 53 55 57 59 61 64 66 68 68 68 65 62 61 61 62 62 63 63 64 64 63 63 64 65 66 66 66 66
38 38 37 37 36 34 31 31 36 42 44 46 48 50 54 57 58 60 62 64 66 67 68 68 66 64 62 61 60 61 63 63 64 64 64 65 66 67 68 68 68 67
Wind_Direction
267 267 267 267 266 268 270 272 275 276 276 277 277 278 282 288 292 295 294 290 287 285 285 286 287 288 290 292 294 296 297 297 298 301 303 304 305 306 307 308 308 308
265 265 265 265 266 269 270 270 271 273 274 274 275 278 283 289 292 291 287 284 283 284 285 287 288 290 292 294 295 296 296 297 299 302 303 304 306 307 307 307 308 308
262 263 263 263 265 268 268 267 269 270 270 272 274 279 285 289 289 285 281 280 281 283 285 287 290 291 292 294 295 296 297 298 301 303 303 305 306 306 307 307 307 308
260 261 261 262 264 267 267 267 268 268 269 271 274 279 285 287 285 282 280 281 282 284 286 288 290 291 292 294 296 296 298 300 302 303 304 305 306 306 306 307 307 308
259 259 260 261 263 264 266 267 268 268 268 270 274 279 284 285 283 281 281 282 284 285 287 288 289 291 293 295 296 298 300 301 302 303 304 305 305 305 306 307 308 309
257 257 258 260 261 263 264 266 267 267 267 270 274 279 283 283 282 282 282 283 284 285 286 288 290 292 294 296 297 298 300 300 302 303 304 304 305 305 306 307 308 309
255 255 256 258 259 260 262 264 265 265 266 270 275 279 282 282 282 282 283 283 284 285 287 289 291 293 295 296 297 298 299 300 301 303 303 304 305 306 307 308 309 310
253 254 255 255 257 258 259 261 263 263 266 271 277 280 281 282 282 283 283 284 285 286 288 290 292 294 295 295 296 297 299 300 302 302 303 305 306 307 308 309 310 311
254 255 255 256 257 257 257 259 261 264 268 274 278 280 281 282 282 282 283 284 286 287 289 291 292 294 294 295 296 297 299 300 302 303 304 306 307 307 308 310 311 313
257 257 257 258 259 260 261 262 264 268 273 277 279 280 280 281 282 283 284 285 286 288 289 291 292 293 294 295 296 298 299 300 302 304 305 307 308 308 309 311 313 313
261 260 260 260 261 263 264 266 269 271 274 276 278 279 280 281 282 283 284 285 287 288 290 291 292 293 294 296 298 299 300 301 303 305 307 308 308 310 312 313 313 313
265 264 264 264 264 265 267 269 270 272 274 276 277 279 280 281 282 283 285 286 287 289 290 292 293 294 295 297 298 299 301 303 305 307 308 309 310 312 314 314 313 313
267 266 266 266 266 267 268 270 271 273 275 276 278 280 281 282 283 284 286 287 288 289 291 293 294 295 296 297 299 300 303 305 307 308 309 310 312 314 314 313 312 313
268 267 267 267 268 269 270 272 273 275 277 278 280 281 282 283 284 285 287 288 289 291 293 294 294 295 297 299 300 302 304 306 307 309 310 311 313 314 313 312 312 313
270 270 270 271 271 272 273 274 276 277 279 280 281 282 283 284 285 287 288 289 291 292 293 294 295 297 298 300 302 304 305 306 308 310 312 312 314 314 312 312 313 314
271 272 273 274 274 275 276 277 278 279 280 280 281 282 284 285 287 289 290 291 292 293 294 296 297 299 300 301 302 304 306 307 309 310 312 313 314 313 311 311 312 314
273 274 275 275 276 277 278 278 279 279 280 281 283 284 285 287 289 291 291 292 292 293 295 297 299 301 302 302 304 306 308 309 309 309 311 313 313 312 311 311 312 313
273 274 275 277 279 281 281 280 280 280 282 284 285 286 288 290 292 292 292 292 293 294 297 299 301 303 303 304 306 308 309 309 309 309 310 312 312 311 310 311 312 313
274 276 278 280 282 282 282 281 282 283 285 286 287 289 291 293 294 295 295 295 295 297 298 299 301 304 305 306 307 308 308 308 309 310 310 311 310 309 310 311 312 313
276 277 277 277 275 271 270 272 275 280 283 286 290 293 293 294 296 297 297 297 298 299 300 301 303 305 307 308 309 308 307 308 310 310 310 310 309 309 310 311 312 313
276 275 276 279 279 269 260 259 263 269 276 283 289 291 290 291 293 295 296 297 298 299 300 301 303 305 307 308 308 308 308 309 310 309 309 309 309 309 310 311 312 313
276 277 279 284 284 272 260 257 259 262 268 275 281 283 284 287 291 293 294 295 296 297 298 299 301 303 305 307 308 309 309 308 308 308 308 308 309 310 310 310 311 313
278 280 282 282 278 271 263 258 259 261 265 268 273 277 280 285 289 292 292 293 293 294 295 296 298 301 304 307 308 308 307 306 305 306 307 308 309 309 310 310 311 313
279 280 281 279 274 271 266 259 256 260 264 266 269 273 278 283 288 289 290 290 290 290 292 294 297 301 305 307 307 306 304 303 304 306 307 308 308 309 309 310 311 313
277 278 278 276 273 272 270 261 255 258 262 264 267 271 276 280 284 286 287 287 287 288 291 294 298 303 306 306 305 302 302 303 305 306 307 308 308 308 309 310 311 312
275 275 275 275 275 273 269 258 252 253 259 263 268 272 274 276 279 281 283 285 286 288 291 293 298 302 304 303 302 301 301 303 305 306 307 307 307 307 308 309 310 311
Height
10712 10712 10711 10712 10712 10713 10713 10712 10711 10710 10710 10708 10707 10706 10704 10703 10701 10700 10698 10697 10696 10694 10692 10691 10689 10687 10685 10684 10682 10680 10678 10676 10673 10670 10666 10663 10659 10655 10651 10646 10641 10637
10708 10708 10708 10708 10708 10709 10709 10707 10706 10706 10705 10704 10702 10701 10700 10699 10697 10696 10695 10693 10692 10690 10688 10686 10684 10683 10681 10679 10677 10675 10673 10671 10668 10664 10661 10657 10653 10649 10645 10640 10635 10630
10705 10704 10704 10704 10705 10706 10704 10703 10702 10701 10700 10699 10698 10697 10696 10694 10693 10692 10690 10689 10687 10685 10683 10681 10680 10678 10676 10674 10672 10670 10668 10665 10662 10658 10655 10651 10648 10643 10639 10634 10629 10625
10701 10700 10700 10701 10702 10701 10699 10699 10698 10697 10696 10694 10693 10692 10692 10690 10689 10687 10685 10684 10682 10680 10678 10677 10675 10673 10671 10669 10667 10665 10662 10659 10656 10652 10649 10645 10641 10637 10632 10628 10624 10619
10696 10695 10695 10696 10697 10696 10695 10694 10694 10692 10691 10689 10688 10688 10688 10686 10684 10682 10681 10679 10677 10676 10674 10672 10670 10668 10666 10664 10661 10659 10656 10653 10650 10646 10643 10639 10635 10631 10626 10622 10618 10614
10691 10690 10690 10691 10691 10691 10690 10689 10689 10688 10686 10685 10684 10684 10683 10681 10679 10678 10676 10675 10673 10671 10669 10667 10665 10663 10661 10658 10655 10653 10650 10647 10644 10641 10637 10633 10629 10625 10621 10616 10612 10608
10686 10686 10686 10686 10686 10685 10685 10684 10684 10683 10681 10680 10680 10679 10678 10676 10674 10673 10671 10670 10668 10666 10664 10662 10660 10657 10655 10652 10649 10647 10644 10641 10638 10635 10631 10627 10623 10619 10615 10611 10607 10602
10681 10681 10681 10681 10681 10680 10679 10679 10678 10678 10677 10676 10675 10674 10673 10671 10669 10668 10666 10665 10663 10661 10659 10657 10654 10652 10649 10646 10643 10641 10638 10636 10633 10629 10626 10622 10618 10614 10610 10606 10601 10597
10676 10677 10677 10676 10676 10675 10674 10674 10673 10673 10672 10671 10670 10669 10667 10666 10664 10663 10661 10660 10658 10655 10653 10651 10649 10646 10643 10640 10637 10635 10633 10630 10627 10624 10620 10617 10613 10609 10604 10600 10596 10591
10671 10672 10671 10672 10671 10670 10669 10669 10668 10667 10667 10666 10665 10664 10662 10661 10659 10658 10656 10655 10652 10650 10648 10645 10643 10640 10636 10634 10631 10630 10627 10625 10622 10619 10615 10612 10607 10603 10599 10595 10591 10586
10666 10666 10666 10666 10666 10665 10664 10663 10662 10662 10661 10660 10659 10658 10657 10656 10654 10653 10651 10649 10647 10644 10642 10639 10637 10634 10630 10628 10626 10624 10622 10619 10617 10614 10610 10606 10602 10598 10594 10590 10586 10581
10661 10661 10661 10661 10660 10659 10659 10658 10657 10656 10655 10655 10654 10653 10652 10650 10649 10647 10645 10643 10641 10638 10636 10634 10631 10628 10625 10623 10620 10618 10616 10614 10611 10608 10605 10601 10597 10593 10589 10585 10581 10576
10656 10656 10656 10655 10655 10654 10653 10652 10651 10650 10650 10649 10649 10648 10647 10645 10643 10641 10639 10637 10635 10632 10630 10628 10626 10622 10620 10617 10615 10613 10610 10608 10606 10603 10600 10597 10592 10588 10584 10580 10576 10572
10652 10651 10651 10650 10650 10649 10648 10647 10646 10645 10645 10644 10643 10642 10641 10639 10637 10635 10633 10631 10629 10627 10625 10623 10620 10617 10614 10612 10610 10607 10605 10603 10601 10598 10595 10591 10587 10583 10579 10575 10571 10567
10647 10647 10646 10646 10645 10644 10643 10642 10641 10640 10639 10639 10638 10636 10635 10633 10631 10629 10627 10625 10623 10621 10619 10618 10615 10612 10609 10607 10604 10602 10600 10598 10596 10593 10590 10586 10582 10578 10574 10570 10566 10562
10642 10642 10642 10641 10640 10639 10638 10637 10636 10635 10634 10633 10632 10630 10629 10627 10625 10624 10622 10620 10618 10616 10614 10613 10610 10607 10605 10602 10600 10598 10595 10593 10590 10588 10585 10581 10577 10573 10569 10565 10561 10558
10637 10637 10637 10637 10636 10635 10634 10632 10631 10629 10628 10627 10626 10624 10623 10622 10620 10618 10617 10615 10613 10611 10609 10608 10606 10603 10601 10598 10595 10593 10590 10587 10585 10582 10579 10576 10572 10568 10564 10560 10556 10552
10632 10632 10633 10632 10632 10631 10629 10627 10625 10624 10623 10622 10620 10619 10618 10617 10615 10613 10611 10609 10608 10606 10605 10603 10601 10599 10596 10593 10590 10588 10585 10582 10580 10577 10574 10571 10567 10563 10559 10555 10551 10547
10627 10628 10628 10629 10629 10627 10625 10623 10620 10618 10618 10617 10616 10615 10614 10612 10611 10608 10606 10604 10602 10601 10600 10598 10596 10594 10591 10588 10585 10582 10580 10577 10574 10571 10569 10565 10562 10558 10554 10549 10545 10541
10623 10623 10623 10624 10625 10625 10623 10620 10617 10614 10613 10613 10612 10611 10609 10608 10606 10604 10601 10599 10597 10595 10594 10592 10590 10588 10586 10583 10580 10577 10574 10571 10568 10566 10563 10560 10557 10553 10548 10544 10539 10536
10617 10617 10618 10619 10621 10621 10619 10616 10612 10610 10609 10609 10608 10607 10605 10603 10601 10599 10597 10594 10591 10589 10587 10585 10584 10582 10580 10578 10575 10572 10569 10566 10563 10560 10557 10555 10551 10547 10543 10538 10534 10530
10611 10611 10613 10615 10615 10614 10612 10610 10608 10606 10606 10605 10605 10603 10601 10599 10597 10594 10592 10589 10586 10583 10581 10580 10578 10577 10575 10573 10570 10566 10563 10560 10557 10554 10551 10548 10545 10542 10538 10533 10529 10525
10606 10606 10608 10610 10609 10608 10607 10607 10605 10603 10603 10602 10601 10599 10597 10595 10592 10590 10587 10584 10581 10579 10577 10575 10573 10572 10570 10567 10564 10561 10557 10554 10551 10548 10545 10542 10539 10536 10532 10527 10523 10519
10601 10601 10602 10604 10604 10603 10603 10603 10601 10599 10599 10598 10596 10595 10593 10590 10587 10584 10581 10579 10576 10574 10572 10570 10568 10567 10565 10562 10559 10555 10552 10549 10546 10543 10539 10536 10533 10529 10525 10522 10518 10514
10597 10597 10597 10597 10598 10598 10599 10599 10598 10596 10595 10593 10592 10590 10588 10585 10581 10578 10575 10573 10570 10568 10566 10564 10563 10561 10559 10557 10554 10550 10547 10543 10540 10537 10533 10530 10526 10523 10519 10516 10512 10509
10592 10592 10592 10591 10592 10593 10594 10594 10593 10591 10590 10589 10587 10585 10582 10578 10575 10572 10569 10567 10565 10563 10561 10559 10557 10556 10554 10552 10549 10545 10541 10538 10534 10531 10527 10523 10520 10516 10512 10509 10506 10503